sat.trackr.live / text

‹ back to catalog

STARLINK-36637

NORAD 67633 · 2026-020S

PAYLOAD ACTIVE UNKNOWN

§ Identity

Operator
Country
US
Launch date
2026-01-30
Launch site
AFETR
Launch vehicle
Mass (kg)
RCS (m²)

Purposes: comms

External: N2YO · Heavens-Above · Gunter

§ Orbital elements

Epoch: 2026-09-19T16:33:26.146080Z

Period
94.27 min
Inclination
43.0011°
Eccentricity
0.0001620
Mean motion
15.27593368 rev/d
Perigee alt
481.9 km
Apogee alt
484.1 km
Semi-major
6,861.1 km
B*
5.2796e-4
RAAN
124.1471°
Arg perigee
262.4976°
Mean anomaly
97.5692°
Rev number
3,578

§ Raw data

STARLINK-366371 67633U 26020S   26262.68988595  .00014300  00000+0  52796-3 0  99902 67633  43.0011 124.1471 0001620 262.4976  97.5692 15.27593368 35781

JSON: /api/v1/satellites/67633 · /tle

For live sub-satellite position, see the globe view (requires WebGL).

§ Visibility from observer

Set your observer location to see the next 7 days of passes ≥ 10°. The values pass through the URL so the page stays shareable.

No JS? Fill the form by hand. The geolocation button needs JavaScript.